Time,TemperatureF,DewpointF,PressureIn,WindDirection,WindDirectionDegrees,WindSpeedMPH,WindSpeedGustMPH,Humidity,HourlyPrecipIn,Conditions,Clouds,dailyrainin,SoftwareType,DateUTC
2013-08-27 00:13:00,73.0,71.0,30.14,ENE,75,0.0,0.0,92,0.00,,,0.00,,2013-08-27 05:13:00,
2013-08-27 00:23:00,73.0,71.0,30.14,ENE,75,0.0,0.0,92,0.00,,,0.00,,2013-08-27 05:23:00,
2013-08-27 00:43:00,72.0,70.0,30.15,ENE,75,0.0,0.0,92,0.00,,,0.00,,2013-08-27 05:43:00,
2013-08-27 00:52:00,72.0,70.0,30.15,ENE,75,0.0,0.0,93,0.00,,,0.00,,2013-08-27 05:52:00,
2013-08-27 01:12:00,72.0,70.0,30.14,ENE,75,0.0,0.0,93,0.00,,,0.00,,2013-08-27 06:12:00,
2013-08-27 01:22:00,71.0,69.0,30.15,ENE,75,0.0,0.0,93,0.00,,,0.00,,2013-08-27 06:22:00,
2013-08-27 01:42:00,71.0,69.0,30.14,ENE,75,0.0,0.0,93,0.00,,,0.00,,2013-08-27 06:42:00,
2013-08-27 01:52:00,71.0,69.0,30.14,ENE,75,0.0,0.0,93,0.00,,,0.00,,2013-08-27 06:52:00,
2013-08-27 02:12:00,71.0,69.0,30.14,ENE,75,0.0,0.0,93,0.00,,,0.00,,2013-08-27 07:12:00,
2013-08-27 02:21:00,70.0,68.0,30.14,ENE,75,0.0,0.0,94,0.00,,,0.00,,2013-08-27 07:21:00,
2013-08-27 02:42:00,70.0,68.0,30.14,ENE,75,0.0,0.0,94,0.00,,,0.00,,2013-08-27 07:42:00,
2013-08-27 02:52:00,70.0,68.0,30.14,ENE,75,0.0,0.0,93,0.00,,,0.00,,2013-08-27 07:52:00,
2013-08-27 03:11:00,70.0,68.0,30.13,ENE,75,0.0,0.0,94,0.00,,,0.00,,2013-08-27 08:11:00,
2013-08-27 03:22:00,69.0,67.0,30.13,ENE,75,0.0,0.0,94,0.00,,,0.00,,2013-08-27 08:22:00,
2013-08-27 03:42:00,69.0,67.0,30.13,ENE,75,0.0,0.0,93,0.00,,,0.00,,2013-08-27 08:42:00,
2013-08-27 03:52:00,69.0,67.0,30.13,ENE,76,0.0,0.0,93,0.00,,,0.00,,2013-08-27 08:52:00,
2013-08-27 04:11:00,69.0,67.0,30.13,ENE,76,0.0,0.0,93,0.00,,,0.00,,2013-08-27 09:11:00,
2013-08-27 04:21:00,68.0,66.0,30.12,ENE,76,0.0,0.0,94,0.00,,,0.00,,2013-08-27 09:21:00,
2013-08-27 04:43:00,68.0,66.0,30.13,ENE,76,0.0,0.0,94,0.00,,,0.00,,2013-08-27 09:43:00,
2013-08-27 04:54:00,68.0,66.0,30.12,ENE,76,0.0,0.0,93,0.00,,,0.00,,2013-08-27 09:54:00,
2013-08-27 05:14:00,68.0,66.0,30.13,ENE,76,0.0,0.0,94,0.00,,,0.00,,2013-08-27 10:14:00,
2013-08-27 05:25:00,68.0,66.0,30.12,SSW,203,0.0,1.0,94,0.00,,,0.00,,2013-08-27 10:25:00,
2013-08-27 05:43:00,68.0,66.0,30.12,East,94,0.0,0.0,94,0.00,,,0.00,,2013-08-27 10:43:00,
2013-08-27 05:53:00,68.0,66.0,30.12,East,94,0.0,0.0,94,0.00,,,0.00,,2013-08-27 10:53:00,
2013-08-27 06:12:00,67.0,65.0,30.12,East,94,0.0,0.0,94,0.00,,,0.00,,2013-08-27 11:12:00,
2013-08-27 06:22:00,67.0,65.0,30.12,East,94,0.0,0.0,94,0.00,,,0.00,,2013-08-27 11:22:00,
2013-08-27 06:42:00,67.0,65.0,30.13,ESE,120,0.0,1.0,94,0.00,,,0.00,,2013-08-27 11:42:00,
2013-08-27 06:52:00,67.0,65.0,30.13,SE,125,0.0,1.0,94,0.00,,,0.00,,2013-08-27 11:52:00,
2013-08-27 07:12:00,67.0,65.0,30.13,ESE,118,0.0,1.0,94,0.00,,,0.00,,2013-08-27 12:12:00,
2013-08-27 07:21:00,68.0,66.0,30.14,ESE,118,0.0,0.0,94,0.00,,,0.00,,2013-08-27 12:21:00,
2013-08-27 07:42:00,69.0,67.0,30.14,ENE,70,0.0,1.0,93,0.00,,,0.00,,2013-08-27 12:42:00,
2013-08-27 07:52:00,70.0,68.0,30.14,ENE,71,0.0,1.0,93,0.00,,,0.00,,2013-08-27 12:52:00,
2013-08-27 08:11:00,71.0,68.0,30.14,SW,216,0.0,2.0,91,0.00,,,0.00,,2013-08-27 13:11:00,
2013-08-27 08:22:00,73.0,69.0,30.14,SSW,213,0.0,1.0,87,0.00,,,0.00,,2013-08-27 13:22:00,
2013-08-27 08:42:00,73.0,69.0,30.14,NW,309,0.0,3.0,86,0.00,,,0.00,,2013-08-27 13:42:00,
2013-08-27 08:52:00,75.0,70.0,30.14,WNW,300,0.0,2.0,85,0.00,,,0.00,,2013-08-27 13:52:00,
2013-08-27 09:11:00,76.0,71.0,30.14,WNW,300,0.0,3.0,84,0.00,,,0.00,,2013-08-27 14:11:00,
2013-08-27 09:22:00,77.0,71.0,30.14,NW,311,0.0,3.0,82,0.00,,,0.00,,2013-08-27 14:22:00,
2013-08-27 09:42:00,77.0,71.0,30.14,WNW,298,1.0,5.0,81,0.00,,,0.00,,2013-08-27 14:42:00,
2013-08-27 09:53:00,78.0,72.0,30.15,SW,225,0.0,7.0,81,0.00,,,0.00,,2013-08-27 14:53:00,
2013-08-27 10:11:00,79.0,72.0,30.15,NW,316,0.0,4.0,80,0.00,,,0.00,,2013-08-27 15:11:00,
2013-08-27 10:22:00,80.0,72.0,30.15,NW,315,1.0,5.0,78,0.00,,,0.00,,2013-08-27 15:22:00,
2013-08-27 10:45:00,81.0,72.0,30.14,WNW,290,1.0,6.0,75,0.00,,,0.00,,2013-08-27 15:45:00,
2013-08-27 10:58:00,82.0,72.0,30.14,NW,320,3.0,9.0,72,0.00,,,0.00,,2013-08-27 15:58:00,
2013-08-27 11:17:00,83.0,73.0,30.14,WNW,296,1.0,8.0,71,0.00,,,0.00,,2013-08-27 16:17:00,
2013-08-27 11:28:00,83.0,73.0,30.14,NW,312,0.0,7.0,72,0.00,,,0.00,,2013-08-27 16:28:00,
2013-08-27 11:46:00,83.0,73.0,30.14,NW,321,2.0,8.0,71,0.00,,,0.00,,2013-08-27 16:46:00,
2013-08-27 11:55:00,84.0,73.0,30.13,SW,220,1.0,8.0,70,0.00,,,0.00,,2013-08-27 16:55:00,
2013-08-27 12:13:00,84.0,74.0,30.13,NW,325,2.0,6.0,71,0.00,,,0.00,,2013-08-27 17:13:00,
2013-08-27 12:23:00,83.0,73.0,30.13,NW,313,1.0,6.0,71,0.00,,,0.00,,2013-08-27 17:23:00,
2013-08-27 12:43:00,84.0,74.0,30.12,NW,321,0.0,5.0,71,0.00,,,0.00,,2013-08-27 17:43:00,
2013-08-27 12:52:00,85.0,74.0,30.11,NW,308,2.0,9.0,70,0.00,,,0.00,,2013-08-27 17:52:00,
2013-08-27 13:12:00,85.0,75.0,30.11,SW,229,2.0,9.0,71,0.00,,,0.00,,2013-08-27 18:12:00,
2013-08-27 13:22:00,86.0,75.0,30.11,NW,315,0.0,7.0,70,0.00,,,0.00,,2013-08-27 18:22:00,
2013-08-27 13:42:00,87.0,75.0,30.10,South,178,0.0,5.0,68,0.00,,,0.00,,2013-08-27 18:42:00,
2013-08-27 13:53:00,87.0,75.0,30.10,SSW,204,1.0,10.0,67,0.00,,,0.00,,2013-08-27 18:53:00,
2013-08-27 14:11:00,88.0,74.0,30.09,WNW,296,2.0,9.0,64,0.00,,,0.00,,2013-08-27 19:11:00,
2013-08-27 14:22:00,88.0,74.0,30.09,WNW,296,2.0,9.0,64,0.00,,,0.00,,2013-08-27 19:22:00,
2013-08-27 14:42:00,87.0,73.0,30.08,WNW,284,1.0,9.0,64,0.00,,,0.00,,2013-08-27 19:42:00,
2013-08-27 14:52:00,88.0,74.0,30.08,NW,315,2.0,9.0,64,0.00,,,0.00,,2013-08-27 19:52:00,
2013-08-27 15:11:00,88.0,75.0,30.07,NNW,344,0.0,4.0,65,0.00,,,0.00,,2013-08-27 20:11:00,